Theta_e
301 301 301 301 301 301 294 281 275 288 293 283 284 277 279 282 281 283 281 282 279 277 277 277 278 279 280 281 282 280 284 280 276 281 286 288 286 284 282 278 275 278 274 276
301 301 301 301 301 301 286 279 279 288 287 273 273 277 278 280 278 278 278 277 281 280 278 272 275 277 281 282 282 277 281 279 274 276 278 282 285 284 285 281 280 278 275 277
301 300 300 300 300 300 286 280 274 279 280 279 272 270 275 276 280 278 280 278 278 277 274 276 274 274 278 281 280 285 283 279 278 274 277 280 280 283 284 284 277 279 279 279
301 301 301 300 300 300 285 279 276 280 272 275 275 275 276 275 274 278 279 277 276 275 272 273 273 276 276 278 281 281 278 275 280 281 282 280 281 282 283 282 284 280 281 282
301 300 300 300 300 299 285 277 275 277 276 276 274 275 274 275 276 276 275 274 276 276 273 274 272 274 274 274 276 277 280 274 276 273 277 281 280 281 281 283 285 285 285 281
301 301 301 300 299 297 288 287 285 281 277 275 271 274 274 276 277 278 278 277 276 275 276 279 279 279 278 277 275 274 274 273 272 268 274 275 275 280 281 282 284 285 281 286
301 301 300 299 299 298 291 289 288 281 274 276 276 276 277 275 276 275 277 278 276 279 283 281 279 277 277 276 276 277 273 273 273 269 272 265 276 283 285 283 284 286 287 287
300 300 300 300 299 299 289 288 288 283 276 278 277 276 275 276 276 275 276 279 281 283 278 274 270 270 271 273 275 276 276 273 271 268 268 273 276 280 281 280 281 286 287 289
298 298 299 300 299 299 292 286 289 285 279 276 279 277 277 274 274 275 277 281 282 280 277 273 265 266 269 270 272 279 278 277 272 270 267 266 275 281 285 283 278 285 287 287
298 297 298 299 299 299 294 288 289 286 279 281 280 277 277 280 278 276 276 277 278 280 274 269 267 267 273 269 269 271 272 273 270 270 269 272 280 284 283 276 278 284 285 286
298 298 297 298 299 298 294 289 289 285 281 281 283 283 280 281 280 275 276 277 275 276 272 268 270 268 272 271 273 272 271 270 271 273 270 267 282 281 280 284 282 284 284 284
298 298 298 297 298 298 297 287 290 291 285 282 287 288 288 285 284 281 280 278 276 279 274 274 273 271 272 272 267 276 271 271 270 272 276 280 281 283 283 287 285 285 286 285
297 298 297 298 298 298 296 287 288 288 284 280 284 282 287 289 288 289 279 278 280 278 281 277 276 272 275 269 271 272 271 273 268 269 281 282 281 284 284 285 286 286 286 286
297 297 297 298 298 298 297 286 289 289 285 276 278 285 282 285 286 286 287 284 283 282 282 277 275 273 279 274 272 270 269 271 269 270 276 281 285 285 286 286 287 286 286 285
296 297 298 297 297 297 289 289 290 291 283 276 278 282 283 283 283 283 284 283 282 281 277 276 273 275 273 273 271 268 270 269 267 268 275 277 283 285 287 285 285 286 285 284
297 297 297 296 296 295 285 279 288 289 290 280 274 282 280 283 283 281 280 282 281 281 276 275 274 276 272 267 266 270 272 274 275 273 280 281 283 284 285 283 284 284 284 284
296 296 296 296 296 286 282 281 287 294 291 280 273 275 279 281 282 281 279 280 277 276 274 272 272 272 274 268 264 270 272 274 274 276 277 274 276 278 282 283 282 283 282 283
296 295 295 294 292 289 282 284 293 292 283 281 268 271 275 281 276 275 282 276 276 275 273 273 271 273 271 265 269 271 272 273 273 274 275 275 276 277 277 279 279 278 278 279
295 294 292 285 282 280 281 292 291 284 279 268 269 269 268 280 277 278 279 279 272 277 271 271 272 268 265 268 270 270 271 271 272 274 274 275 274 274 275 275 276 275 275 276
293 285 280 275 280 291 285 279 274 271 269 269 268 274 271 275 275 274 274 276 271 268 271 275 269 267 271 272 273 273 273 274 274 271 270 272 272 273 274 274 275 275 275 275
282 278 277 282 287 278 272 266 265 265 263 265 267 268 270 277 271 271 276 269 271 265 269 268 266 265 269 273 273 274 274 274 274 275 274 274 274 273 273 274 274 275 275 274
284 284 284 278 273 269 265 261 266 263 261 267 268 271 273 274 277 274 272 267 268 263 271 265 263 268 271 272 272 274 274 274 274 275 274 274 274 274 273 273 273 274 274 275
279 275 270 270 267 263 259 257 260 262 263 266 271 268 272 274 276 270 267 264 263 270 264 264 267 270 271 272 273 273 274 274 274 274 274 274 274 274 273 273 273 274 273 273
270 264 262 262 259 261 261 262 264 269 269 271 271 268 267 271 269 268 263 264 266 260 260 263 268 270 270 272 273 273 272 273 273 273 273 273 273 273 273 273 272 272 272 273
264 266 262 260 268 264 264 262 264 268 273 272 268 267 265 265 266 269 265 261 261 264 264 268 270 270 269 271 272 271 271 271 271 271 271 272 272 272 271 272 271 271 272 271
265 267 262 268 263 263 262 262 265 270 272 270 267 260 258 260 265 264 261 260 262 265 269 271 270 270 270 270 270 270 270 269 268 269 270 271 271 270 269 270 270 270 271 270
264 262 270 269 266 265 266 268 268 271 268 262 259 258 259 260 260 262 266 264 266 268 270 272 271 269 269 269 269 269 269 269 269 269 269 269 270 269 269 269 270 270 271 270
Wind_Speed
20 23 23 25 26 26 14 3 4 7 9 5 5 4 6 7 6 4 4 3 5 4 6 6 6 5 7 17 10 9 7 5 6 12 6 4 4 9 8 6 6 4 1 8
20 20 21 22 24 24 2 3 3 5 6 5 4 4 4 4 5 5 5 3 0 6 5 8 9 8 13 16 12 10 12 6 5 5 3 2 7 7 8 4 4 9 8 7
21 21 21 22 21 22 5 3 5 5 5 2 4 3 5 5 5 6 3 6 4 7 11 10 6 17 11 15 19 25 12 9 12 11 6 3 6 8 15 15 6 8 14 4
19 19 18 19 19 15 4 4 1 1 4 3 7 3 4 9 7 5 3 3 5 9 6 12 14 12 21 12 20 8 8 10 13 18 18 8 13 6 10 17 21 11 7 15
18 18 18 19 18 11 4 1 1 2 4 3 4 4 4 11 14 6 8 10 17 13 12 17 21 18 16 13 9 12 6 13 14 25 20 17 20 15 13 19 20 21 16 7
22 21 21 19 18 8 1 1 2 2 5 3 3 6 7 11 8 11 12 11 9 16 21 15 15 15 17 18 19 21 17 11 13 21 19 17 17 24 25 19 9 14 18 14
25 22 17 18 17 13 2 3 3 4 8 5 10 8 12 16 19 15 20 14 12 20 15 10 13 14 18 21 25 23 18 17 12 15 13 21 11 5 16 23 22 19 15 7
25 24 23 21 20 21 3 3 3 4 6 7 13 14 13 14 13 14 17 22 17 12 5 5 7 7 11 13 19 20 21 18 10 13 13 17 19 11 8 12 17 16 17 18
26 24 24 25 21 20 5 4 4 3 7 10 10 8 13 12 11 14 9 10 7 3 4 4 4 7 14 7 7 3 11 19 14 7 14 20 14 22 22 3 20 16 20 20
26 25 26 25 24 22 10 4 6 3 8 15 9 12 11 6 4 5 4 4 3 5 3 4 4 10 5 6 12 8 6 7 18 19 19 13 8 15 2 12 6 11 17 14
27 27 26 26 24 22 13 6 7 4 6 17 9 18 13 7 5 6 3 5 1 3 4 2 3 4 5 9 14 12 14 9 6 11 14 26 15 11 19 12 1 1 5 6
28 28 24 26 27 25 21 7 3 5 6 11 13 17 15 17 22 10 4 4 4 2 3 3 3 7 9 8 13 13 3 9 7 7 6 2 3 5 2 3 6 5 7 6
27 27 26 29 27 26 19 4 2 1 3 6 3 8 9 10 15 12 5 2 6 4 6 4 4 6 4 8 10 7 12 8 6 19 7 3 4 4 5 6 8 12 12 14
28 27 30 28 27 24 17 1 1 1 3 3 6 2 6 7 4 7 12 16 4 0 1 3 3 4 4 4 7 7 9 15 18 16 14 13 12 11 13 18 17 21 19 18
28 29 28 27 24 18 5 1 1 2 0 4 6 8 3 6 8 10 8 10 10 5 2 1 4 4 5 4 5 6 16 13 8 8 25 13 6 15 15 22 20 19 21 22
29 28 28 24 18 4 3 1 2 1 1 2 4 2 5 10 14 16 15 9 1 2 5 4 4 4 4 4 6 14 20 17 14 12 19 14 17 20 20 24 22 21 22 19
29 29 23 17 8 3 3 2 5 12 0 2 4 5 5 5 3 4 11 13 7 5 4 5 4 4 3 4 8 23 23 19 22 24 18 29 26 17 20 22 22 27 23 20
30 24 17 6 5 5 3 3 14 5 2 3 2 5 4 5 4 4 2 4 8 10 4 2 6 3 4 7 19 19 23 23 28 27 24 20 21 26 26 22 22 25 21 18
24 19 6 4 5 4 4 17 4 4 4 3 3 6 5 4 3 2 2 1 5 2 6 6 6 7 9 11 16 19 20 18 19 20 23 24 26 24 24 23 22 22 18 16
17 7 5 5 2 16 7 6 5 6 5 5 2 2 4 4 2 2 3 2 3 3 4 2 5 8 11 16 14 13 15 16 16 20 25 22 21 19 20 19 16 15 15 15
5 5 2 4 12 4 5 5 6 5 7 4 3 2 7 2 3 3 2 2 3 4 4 3 5 6 12 16 15 14 14 15 16 14 13 14 14 14 15 16 16 15 14 13
3 4 4 4 7 5 8 4 5 5 3 5 4 7 4 4 2 3 5 4 4 3 2 5 4 6 12 13 14 14 14 15 15 15 14 14 16 13 12 11 12 11 11 10
3 4 6 6 6 11 7 7 7 6 4 3 8 9 3 4 2 2 5 7 2 1 5 3 3 7 10 11 11 13 13 14 14 14 13 13 12 11 11 11 10 8 8 8
6 6 8 5 5 1 3 4 4 5 4 8 8 4 2 3 5 2 7 2 4 5 4 3 4 7 9 10 10 11 13 14 13 13 13 13 11 10 8 8 6 6 8 8
5 6 4 3 2 3 4 3 4 4 5 5 3 3 2 4 5 4 4 7 5 3 2 2 5 5 6 10 11 12 11 11 11 11 11 11 11 9 9 8 6 6 6 6
5 7 4 3 3 5 4 2 4 2 6 2 2 1 6 5 3 6 5 4 4 3 3 3 3 5 7 9 9 10 9 9 9 9 9 9 9 9 8 7 5 6 5 6
6 3 2 1 1 4 4 3 4 4 3 3 3 7 2 2 6 5 4 3 3 4 4 4 4 5 7 8 8 9 9 9 9 9 9 8 9 8 7 10 9 7 6 5
Wind_Direction
0 1 0 359 355 0 352 4 48 319 339 47 11 37 338 304 314 345 333 307 56 6 345 286 268 273 358 4 324 344 325 247 230 215 220 214 230 185 161 169 206 213 157 271
359 358 358 357 360 5 348 19 292 324 37 68 346 297 294 269 315 335 329 281 128 297 314 336 347 339 331 321 1 4 355 293 273 288 13 330 223 206 196 112 94 198 168 249
356 356 355 354 1 2 63 37 10 335 28 79 128 323 295 313 318 289 306 319 331 336 312 284 283 292 293 336 312 300 285 233 247 247 225 132 199 211 199 193 190 202 224 255
342 343 347 348 352 9 75 22 348 28 329 328 314 177 257 293 303 245 266 268 252 308 275 287 277 286 303 296 285 288 314 276 277 269 267 257 258 233 207 213 225 208 199 219
331 341 346 348 349 29 76 340 26 341 250 235 249 277 232 277 284 258 285 288 287 286 268 268 284 287 283 282 279 267 280 272 301 298 297 271 253 249 228 224 227 243 253 250
336 340 340 340 345 15 127 219 275 197 223 187 207 235 239 253 285 277 259 260 280 286 271 271 277 271 270 266 270 268 261 263 263 269 284 298 258 228 233 242 212 215 229 230
343 338 335 330 336 343 208 219 230 253 270 216 245 247 249 270 272 262 275 271 265 270 290 305 285 264 259 252 251 239 242 239 232 257 270 263 266 262 208 220 224 212 232 197
340 334 332 329 331 322 203 191 224 234 262 249 262 267 256 262 263 267 262 275 257 275 305 269 281 285 272 251 238 245 215 231 242 238 245 261 285 285 198 193 236 216 213 228
333 335 329 323 328 326 303 201 192 254 295 271 253 259 271 270 265 281 237 252 252 165 247 249 253 288 295 280 299 345 216 222 218 221 238 244 248 244 236 189 248 203 207 221
333 328 326 326 320 320 315 246 175 229 275 270 245 254 263 232 219 251 294 271 320 180 229 241 250 283 254 266 324 308 292 278 223 225 238 257 249 253 121 211 234 199 191 204
332 323 327 327 320 323 322 280 185 205 265 273 248 263 254 247 229 246 265 303 350 219 232 241 253 276 269 287 285 287 295 276 262 220 230 241 216 214 206 218 72 125 118 134
329 325 323 327 330 323 318 295 213 201 230 277 287 269 252 233 242 253 208 239 192 238 261 249 271 276 281 291 299 308 265 336 288 253 261 92 314 276 306 230 143 140 114 109
330 326 328 327 323 322 330 256 320 220 271 283 262 250 259 246 237 230 257 230 204 207 200 255 239 263 298 292 300 354 343 349 278 324 14 9 346 318 42 48 92 93 89 111
329 330 328 326 324 327 336 38 323 268 283 285 282 1 324 308 289 227 219 243 274 243 180 251 263 270 352 11 327 39 350 301 319 281 261 333 43 66 92 89 85 82 78 81
331 328 323 325 328 329 81 119 326 134 23 294 295 322 360 2 8 339 293 251 245 238 197 192 12 358 340 13 352 14 343 326 331 291 290 280 351 57 66 79 78 76 83 79
328 323 330 327 326 17 96 35 281 277 233 295 313 13 19 27 17 14 15 16 49 119 40 38 35 315 37 19 3 340 339 336 345 351 0 47 48 57 64 74 75 76 75 74
329 330 328 328 340 83 97 153 328 343 133 7 311 331 11 358 346 357 29 32 44 58 65 40 19 0 26 60 18 338 350 355 10 17 6 34 29 41 50 64 67 69 65 62
331 330 331 353 59 71 30 327 339 348 43 22 36 306 349 24 329 344 11 57 49 34 55 26 23 350 42 36 352 349 356 2 13 14 24 38 39 40 43 48 53 59 55 53
332 334 338 52 35 22 291 319 71 53 86 94 55 342 326 360 316 300 261 116 54 70 60 38 32 27 42 352 353 359 358 6 1 10 22 27 33 36 39 42 44 52 49 48
341 16 31 1 314 311 341 11 22 17 345 27 74 305 312 310 315 298 329 75 70 55 33 77 29 48 20 5 2 2 360 5 6 20 20 16 28 29 33 37 40 45 46 47
20 20 5 262 325 34 30 24 47 332 13 1 316 305 327 332 317 311 322 98 44 51 4 68 22 21 4 353 359 2 4 10 19 27 29 29 27 28 29 30 33 34 35 37
269 301 345 358 23 29 58 345 344 39 304 322 344 328 316 299 307 298 354 86 47 60 345 54 26 357 350 350 353 360 5 10 16 21 23 25 32 25 29 31 28 29 30 28
41 41 46 34 321 35 56 348 320 336 324 312 329 324 319 302 325 9 47 66 59 29 40 46 21 342 347 345 349 354 1 9 12 13 16 19 22 25 26 22 17 16 27 22
65 56 21 69 360 9 208 216 257 262 290 310 315 296 335 318 1 350 67 298 59 57 41 32 351 350 338 340 348 356 355 359 360 360 358 4 6 5 10 15 6 4 16 8
69 59 50 43 251 256 252 246 310 262 279 309 320 312 53 342 43 34 52 39 50 54 22 16 341 327 331 347 350 349 348 349 350 347 347 346 350 352 346 352 351 357 358 6
63 46 34 313 47 311 325 296 275 283 317 333 55 29 46 33 35 27 32 67 45 33 351 330 321 346 347 345 341 339 338 340 336 340 339 339 345 340 320 317 337 341 344 348
41 352 336 329 250 247 276 304 294 312 344 22 55 50 288 306 43 31 21 28 337 319 331 327 340 351 341 332 334 334 338 339 337 336 337 331 334 326 347 351 340 332 325 320